Wind_Speed
16 21 28 33 35 35 42 43 38 38 41 39 36 32 30 26 23 22 20 19 18 17 15 14 12 10 11 13 13 14 15 19 21 14 10 4 3 1 21 13 15 20 20
11 16 25 31 37 37 39 41 42 43 45 42 37 34 31 27 24 22 20 18 17 16 14 12 11 9 9 10 13 15 15 15 19 12 4 4 5 5 10 14 12 18 23
17 17 23 28 32 35 40 41 43 46 44 43 37 33 30 28 23 23 22 19 17 15 13 12 10 8 8 10 11 13 14 13 13 15 8 3 2 12 5 11 14 14 30
22 21 24 30 32 35 40 41 43 45 45 43 40 39 32 30 27 26 23 21 17 15 13 10 8 7 7 8 9 10 11 10 12 6 9 4 2 1 5 6 21 16 26
22 22 23 36 35 36 41 42 46 46 46 44 42 40 36 32 30 26 25 22 18 15 12 9 7 6 5 6 6 7 9 9 9 8 7 2 5 5 5 6 18 29 22
20 19 27 33 34 32 36 38 41 41 46 45 43 40 36 31 31 28 26 23 20 16 12 8 5 4 4 4 5 6 7 8 7 7 7 7 4 8 6 5 11 14 26
19 19 20 24 31 33 35 38 39 39 45 46 43 39 36 34 34 32 29 26 22 17 12 7 4 3 2 3 4 5 7 8 8 9 10 10 11 13 15 13 14 9 17
20 22 22 26 30 33 36 37 35 35 41 45 42 37 35 34 34 32 29 25 20 16 11 7 3 1 1 3 5 6 8 9 10 10 11 13 14 15 16 15 15 8 8
25 25 23 32 33 36 37 36 35 38 42 43 40 36 35 33 33 29 25 22 18 14 10 6 3 1 2 4 6 7 8 10 11 12 13 15 15 16 15 16 16 12 7
23 23 24 34 37 36 35 34 36 40 42 40 38 35 34 32 30 28 25 21 18 14 9 5 3 2 3 4 6 8 9 11 12 14 15 15 15 16 17 18 21 21 18
24 22 20 30 36 38 35 35 36 39 39 37 36 35 32 31 30 28 24 20 16 11 8 5 3 2 4 6 8 9 10 12 14 14 14 16 17 18 19 21 22 22 22
22 21 22 30 32 34 35 36 38 40 40 38 36 35 34 33 30 27 22 17 14 9 6 3 3 4 6 7 8 9 11 12 14 15 16 17 17 19 21 22 23 23 25
17 19 19 19 27 32 34 34 36 38 39 38 38 37 36 32 29 24 20 15 11 8 5 3 3 5 6 8 8 9 10 13 14 15 17 18 19 21 22 23 25 26 25
17 16 16 16 25 30 33 34 33 39 39 40 41 38 34 30 26 22 17 13 10 6 3 2 3 5 7 8 9 10 12 13 15 16 17 18 18 20 21 24 24 23 24
16 15 16 15 22 28 29 31 34 38 41 41 40 35 30 27 23 19 15 11 7 4 1 2 4 6 7 8 9 10 12 14 16 17 17 17 18 19 20 21 23 26 23
17 18 17 16 21 28 31 32 34 36 40 39 37 32 28 24 21 17 13 9 6 3 0 3 5 6 7 8 9 10 13 16 15 17 19 20 22 19 19 21 21 21 23
14 16 17 17 25 30 34 33 34 38 38 38 34 30 26 23 18 15 11 7 4 2 1 3 5 6 7 7 9 12 13 15 17 18 20 20 21 22 23 24 22 24 24
16 16 15 22 25 31 33 37 37 37 38 35 31 27 24 20 16 12 8 6 4 1 2 4 6 7 7 7 11 11 16 17 17 16 19 20 23 23 23 27 27 26 21
16 18 25 29 30 32 35 38 35 36 36 32 29 24 20 17 13 10 8 6 3 1 3 5 6 7 7 11 11 14 15 16 17 18 19 21 23 24 24 25 25 24 26
24 26 29 33 34 31 38 38 32 34 32 29 25 21 16 13 11 9 7 5 2 2 3 4 5 6 10 12 13 14 15 18 19 20 20 21 21 22 22 25 24 22 28
28 29 31 32 33 35 38 33 31 30 29 25 21 17 14 11 9 8 5 4 2 1 3 5 6 8 10 11 12 13 15 17 18 18 22 24 21 21 24 22 24 25 27
26 31 31 29 30 37 40 30 31 29 25 22 19 16 13 10 7 6 6 3 0 2 5 7 8 9 10 11 12 13 14 16 19 20 23 22 20 22 21 20 20 23 24
26 30 36 31 28 31 40 33 29 27 23 20 17 14 11 9 8 7 4 2 2 3 5 6 7 10 12 13 12 15 15 15 18 19 19 18 19 18 18 18 20 20 24
27 33 34 30 26 31 33 34 27 23 21 19 16 13 12 10 6 4 3 3 2 2 4 5 8 10 13 15 16 17 17 18 19 22 19 18 19 17 17 20 22 23 22
31 33 32 29 27 33 30 26 23 20 19 17 15 14 10 7 6 6 5 2 1 4 5 7 8 11 13 15 16 16 18 19 21 18 21 21 21 19 19 20 20 22 22
32 32 30 30 28 30 26 22 18 16 17 16 13 11 8 7 6 5 4 3 4 4 5 6 8 10 10 14 16 17 16 16 19 18 19 17 17 18 19 20 21 22 23
Wind_Direction
202 188 192 191 185 183 186 187 186 181 175 169 162 156 152 154 154 154 151 150 148 144 136 124 113 93 70 55 43 38 30 24 18 13 13 18 20 137 9 20 14 3 1
176 174 185 186 186 181 182 185 183 177 175 173 169 162 158 157 156 155 155 154 151 145 138 129 117 94 72 55 39 37 39 34 28 24 7 2 342 300 345 5 3 7 355
193 186 179 188 184 183 182 181 179 177 177 175 168 162 158 154 152 157 157 156 155 147 142 132 118 96 68 53 42 38 41 41 46 52 40 8 328 327 326 327 341 350 346
198 190 182 185 186 187 186 184 181 177 179 177 173 169 161 161 167 164 160 157 158 151 145 134 116 94 68 54 44 36 37 36 37 45 34 36 296 308 321 314 332 328 338
199 193 188 184 188 182 185 186 184 180 180 180 180 176 174 173 168 166 160 158 156 155 149 138 117 95 72 54 45 34 28 27 25 19 4 28 340 277 237 277 315 322 328
199 195 198 182 182 178 178 182 180 178 182 183 182 184 179 172 166 166 164 162 159 157 154 145 126 96 69 44 30 20 9 5 0 353 340 337 325 299 293 270 301 289 315
188 184 182 181 180 173 177 179 179 178 184 185 186 187 184 179 176 172 171 167 165 163 162 157 140 102 64 19 -0 351 347 343 339 336 327 321 318 313 310 305 301 289 306
183 181 178 180 180 176 177 180 178 173 180 184 186 188 186 183 182 179 177 175 172 168 168 167 160 125 3 337 331 330 329 325 324 325 321 318 322 319 320 315 314 311 296
186 180 178 179 179 178 177 180 176 176 181 184 185 188 188 187 183 179 177 172 173 173 172 173 185 212 303 317 319 322 321 321 322 322 320 318 320 317 317 318 319 308 309
190 186 180 178 176 178 171 175 175 176 180 184 187 188 187 187 180 175 173 172 170 171 173 184 205 256 302 313 317 321 322 320 319 323 319 318 321 316 317 318 315 311 292
186 183 178 179 168 166 163 165 168 173 179 181 181 182 182 177 173 171 169 168 167 170 179 195 227 280 308 319 322 324 325 321 319 321 319 316 318 316 316 315 312 310 306
174 169 164 167 160 158 156 160 166 171 175 175 175 176 172 169 166 165 164 164 166 170 180 200 259 300 320 326 325 323 323 323 319 317 316 315 319 314 315 313 311 310 310
151 154 158 161 156 153 151 153 159 165 171 171 170 165 163 163 161 160 159 160 164 167 178 222 285 315 325 322 323 323 321 317 316 316 315 316 317 315 315 313 311 311 305
150 150 151 152 152 149 144 145 151 163 164 164 162 160 160 160 157 155 155 158 161 166 187 261 310 323 320 320 328 324 322 319 317 317 316 315 314 313 313 312 310 308 305
147 151 150 149 144 140 139 137 143 152 158 157 158 157 155 154 153 151 152 155 157 165 198 295 317 316 322 331 328 328 322 320 321 318 315 314 314 309 308 309 311 310 305
149 148 145 145 141 140 135 137 139 146 155 153 153 152 151 150 150 149 150 152 154 156 257 323 321 328 335 328 331 324 321 321 321 318 316 316 317 319 312 310 306 303 306
148 142 144 144 144 139 137 136 139 147 149 150 149 149 149 147 147 147 147 149 149 151 354 332 335 337 331 339 335 326 320 322 319 316 316 318 321 320 319 316 305 301 298
142 141 139 134 134 131 129 133 139 144 145 145 146 147 148 145 144 145 145 146 145 126 347 350 342 331 337 330 330 328 316 316 318 319 320 322 322 322 314 309 306 302 311
139 135 135 130 126 125 128 128 133 139 142 143 144 147 149 143 142 143 143 143 144 72 1 341 337 340 335 327 329 325 320 321 322 324 326 326 317 317 311 315 318 315 311
132 130 127 124 121 126 130 128 129 134 137 143 141 143 143 141 141 141 143 144 116 33 333 340 344 337 328 323 322 323 323 323 323 324 328 329 317 317 319 322 321 321 313
126 124 126 124 124 128 130 123 130 129 138 138 136 134 133 136 139 141 134 125 121 332 348 342 338 334 323 320 320 325 326 326 320 321 327 325 321 319 321 319 318 313 318
121 122 116 113 119 129 129 122 123 133 135 134 131 128 128 132 135 131 130 144 52 10 5 353 329 324 325 331 332 331 331 327 326 324 322 323 322 322 320 320 321 322 325
121 121 113 107 112 122 131 121 131 136 133 130 126 126 128 128 131 139 138 93 55 35 350 324 321 327 339 342 345 341 338 330 324 321 321 319 323 323 324 329 326 327 333
116 117 112 109 105 117 123 127 133 132 131 128 127 129 131 129 123 113 99 94 84 334 326 324 327 338 343 345 343 343 342 337 336 330 323 326 324 328 328 332 336 334 327
112 109 108 106 106 118 121 125 128 133 129 127 128 130 125 113 104 107 104 74 7 336 339 345 345 343 340 335 331 337 337 340 334 328 331 336 339 330 327 327 327 328 324
107 104 106 108 111 118 119 121 124 129 131 129 131 126 118 119 119 122 117 90 45 33 16 2 350 342 333 332 337 335 331 336 337 335 343 334 332 329 327 326 324 326 324
Height
769 775 778 782 787 793 798 804 808 813 819 825 830 834 836 841 845 848 850 852 854 856 858 859 862 863 863 863 863 862 861 859 857 854 854 854 852 852 853 852 852 850 849
767 770 775 779 783 788 794 801 805 809 816 821 828 832 835 841 844 847 850 852 855 856 858 860 862 863 864 865 865 864 862 862 860 859 860 860 855 851 851 851 851 851 849
758 762 767 774 779 783 789 796 801 806 812 818 825 831 835 840 844 847 849 852 855 857 859 861 862 863 864 865 866 865 864 864 863 862 865 866 867 859 852 850 850 849 849
743 751 755 765 772 778 785 792 798 803 809 815 820 825 830 835 840 844 848 851 854 857 859 861 862 863 865 865 866 866 865 865 864 864 866 867 867 866 861 850 849 848 848
734 741 745 752 764 771 778 787 794 798 805 812 816 823 828 833 838 844 847 850 853 857 859 861 862 863 865 866 866 866 866 866 866 865 865 865 865 864 864 859 850 845 846
726 734 744 748 758 767 774 784 790 795 800 807 814 820 826 831 836 842 846 849 852 856 859 861 862 863 864 866 866 866 866 865 865 865 865 865 864 862 862 858 853 849 844
721 729 737 745 756 760 770 778 787 792 797 803 811 818 824 828 833 838 843 847 850 854 858 860 861 862 863 864 865 865 864 864 864 863 862 862 861 860 858 855 851 846 843
711 719 729 740 749 755 764 774 782 788 794 800 807 818 823 826 832 835 840 845 850 854 857 859 860 861 862 863 863 863 863 863 862 861 860 859 858 857 856 854 850 842 839
697 704 718 728 740 750 757 769 777 784 791 798 805 815 821 825 829 835 840 845 850 853 856 858 859 860 861 861 861 861 861 860 860 859 857 856 854 853 852 851 849 846 837
690 700 707 718 732 746 754 767 774 781 788 796 803 812 819 825 830 835 839 844 849 852 855 857 859 859 860 859 859 859 858 857 857 856 854 853 852 850 848 846 845 843 839
681 694 706 719 723 737 749 762 771 779 787 794 801 810 817 824 829 834 839 844 848 851 854 856 857 857 858 857 856 856 855 854 854 853 852 850 848 846 844 842 840 837 835
670 685 698 715 721 733 742 756 767 776 783 792 800 809 816 823 828 834 839 843 847 850 852 854 855 856 855 854 854 853 852 851 851 850 848 846 844 842 840 837 835 832 829
680 689 701 709 720 730 740 753 765 774 781 790 799 809 817 822 827 833 838 842 846 849 851 852 853 853 852 853 852 850 849 849 847 847 845 842 840 838 836 833 828 825 822
682 692 703 713 723 730 738 752 765 773 781 790 799 809 817 822 828 833 837 842 845 847 849 850 851 851 851 851 849 848 847 846 845 842 841 839 837 834 831 828 824 820 817
690 700 706 717 724 733 744 754 764 773 782 791 801 811 818 824 829 832 837 841 843 845 848 848 848 849 848 847 846 845 844 843 840 839 838 835 833 831 827 824 820 817 813
687 697 710 722 727 736 743 756 765 775 784 794 803 813 819 824 828 832 836 840 843 844 846 846 847 846 845 845 844 843 842 839 837 836 834 831 828 825 823 820 818 814 809
698 705 715 725 731 736 744 757 768 777 788 796 806 815 820 824 829 832 836 839 841 843 844 845 844 843 843 842 842 841 838 836 835 833 831 826 823 820 818 815 812 808 805
701 710 718 727 735 740 749 759 771 782 790 799 807 816 821 824 827 831 835 838 841 842 842 842 842 842 841 840 839 837 836 834 832 829 827 821 818 816 814 810 805 800 798
702 711 719 727 736 745 754 762 776 785 795 802 809 816 821 824 827 830 834 837 839 841 840 841 840 840 840 839 837 836 833 830 827 825 821 818 816 814 810 805 800 796 792
706 715 722 729 739 751 758 769 781 788 798 805 811 816 820 823 828 831 834 836 837 839 840 840 839 838 837 837 836 834 830 826 823 820 817 816 815 810 806 802 797 792 787
711 721 727 733 741 754 763 774 786 793 801 807 812 816 820 824 829 831 833 835 837 838 838 838 837 836 837 836 833 830 826 823 820 817 815 813 810 806 802 798 794 789 784
718 724 732 741 750 758 767 781 789 796 803 809 813 817 821 825 828 830 833 836 836 835 835 835 837 837 835 832 828 826 823 821 818 815 813 810 806 802 798 794 790 786 782
724 731 735 749 761 767 772 783 794 800 805 809 814 818 823 826 829 831 833 833 833 834 836 837 837 835 831 827 825 823 820 819 816 814 810 806 802 798 794 791 787 784 779
729 737 745 758 769 775 782 788 796 801 806 812 816 820 825 828 829 830 830 831 834 836 836 835 834 830 826 824 823 821 819 817 814 811 806 803 799 795 792 787 784 780 777
735 742 752 764 774 781 788 794 798 803 809 814 818 823 826 828 828 830 832 833 835 835 833 831 829 827 825 824 823 821 818 815 813 808 804 799 795 792 788 784 781 778 773
740 750 760 769 779 786 793 798 802 806 811 817 821 824 827 828 830 832 833 833 832 831 830 828 827 826 825 824 821 819 817 815 811 806 803 799 796 792 788 784 780 776 771